Time,TemperatureF,DewpointF,PressureIn,WindDirection,WindDirectionDegrees,WindSpeedMPH,WindSpeedGustMPH,Humidity,HourlyPrecipIn,Conditions,Clouds,dailyrainin,SoftwareType,DateUTC
2013-02-08 00:13:00,25.6,19.0,30.44,ENE,78,0.0,1.0,76,0.00,,,0.00,weatherlink.com 1.10,2013-02-08 05:13:00,
2013-02-08 00:28:00,25.6,19.0,30.43,ENE,78,0.0,0.0,77,0.00,,,0.00,weatherlink.com 1.10,2013-02-08 05:28:00,
2013-02-08 00:43:00,25.8,20.0,30.43,ENE,78,0.0,0.0,78,0.00,,,0.00,weatherlink.com 1.10,2013-02-08 05:43:00,
2013-02-08 00:58:00,26.0,20.0,30.41,ENE,64,0.0,4.0,78,0.00,,,0.00,weatherlink.com 1.10,2013-02-08 05:58:00,
2013-02-08 01:13:00,26.3,21.0,30.41,East,84,0.0,5.0,79,0.00,,,0.00,weatherlink.com 1.10,2013-02-08 06:13:00,
2013-02-08 01:28:00,26.8,21.0,30.40,NE,47,0.0,4.0,80,0.00,,,0.00,weatherlink.com 1.10,2013-02-08 06:28:00,
2013-02-08 01:43:00,27.2,22.0,30.39,ESE,103,5.0,6.0,80,0.00,,,0.00,weatherlink.com 1.10,2013-02-08 06:43:00,
2013-02-08 01:58:00,27.9,23.0,30.39,East,91,5.0,7.0,81,0.00,,,0.00,weatherlink.com 1.10,2013-02-08 06:58:00,
2013-02-08 02:13:00,28.4,23.0,30.38,East,91,5.0,8.0,81,0.00,,,0.00,weatherlink.com 1.10,2013-02-08 07:13:00,
2013-02-08 02:28:00,28.9,24.0,30.37,East,96,5.0,10.0,81,0.00,,,0.00,weatherlink.com 1.10,2013-02-08 07:28:00,
2013-02-08 02:43:00,29.5,24.0,30.36,East,101,7.0,9.0,81,0.00,,,0.00,weatherlink.com 1.10,2013-02-08 07:43:00,
2013-02-08 02:58:00,29.8,25.0,30.36,ENE,72,8.0,11.0,81,0.00,,,0.00,weatherlink.com 1.10,2013-02-08 07:58:00,
2013-02-08 03:13:00,29.9,25.0,30.35,ESE,103,4.0,11.0,81,0.00,,,0.00,weatherlink.com 1.10,2013-02-08 08:13:00,
2013-02-08 03:28:00,30.0,25.0,30.34,East,101,6.0,8.0,82,0.00,,,0.00,weatherlink.com 1.10,2013-02-08 08:28:00,
2013-02-08 03:44:00,30.2,25.0,30.34,ESE,113,6.0,10.0,82,0.00,,,0.00,weatherlink.com 1.10,2013-02-08 08:44:00,
2013-02-08 03:59:00,30.6,26.0,30.34,East,99,8.0,11.0,82,0.00,,,0.00,weatherlink.com 1.10,2013-02-08 08:59:00,
2013-02-08 04:13:00,31.1,26.0,30.33,ENE,78,9.0,12.0,82,0.00,,,0.00,weatherlink.com 1.10,2013-02-08 09:13:00,
2013-02-08 04:28:00,31.4,27.0,30.32,ESE,103,7.0,15.0,82,0.00,,,0.00,weatherlink.com 1.10,2013-02-08 09:28:00,
2013-02-08 04:44:00,31.5,26.0,30.32,East,99,6.0,12.0,81,0.00,,,0.00,weatherlink.com 1.10,2013-02-08 09:44:00,
2013-02-08 04:59:00,31.6,26.0,30.31,ESE,103,7.0,14.0,81,0.00,,,0.00,weatherlink.com 1.10,2013-02-08 09:59:00,
2013-02-08 05:14:00,31.6,26.0,30.30,East,100,9.0,11.0,81,0.00,,,0.00,weatherlink.com 1.10,2013-02-08 10:14:00,
2013-02-08 05:29:00,31.7,27.0,30.29,ESE,106,5.0,11.0,81,0.00,,,0.00,weatherlink.com 1.10,2013-02-08 10:29:00,
2013-02-08 05:44:00,31.7,27.0,30.29,East,101,7.0,14.0,81,0.00,,,0.00,weatherlink.com 1.10,2013-02-08 10:44:00,
2013-02-08 05:59:00,31.8,27.0,30.28,East,89,8.0,13.0,81,0.00,,,0.00,weatherlink.com 1.10,2013-02-08 10:59:00,
2013-02-08 06:14:00,31.9,27.0,30.28,ESE,108,7.0,13.0,81,0.00,,,0.00,weatherlink.com 1.10,2013-02-08 11:14:00,
2013-02-08 06:29:00,32.0,27.0,30.28,ESE,108,9.0,13.0,81,0.00,,,0.00,weatherlink.com 1.10,2013-02-08 11:29:00,
2013-02-08 06:44:00,32.1,27.0,30.29,ESE,106,9.0,14.0,81,0.00,,,0.00,weatherlink.com 1.10,2013-02-08 11:44:00,
2013-02-08 06:59:00,32.2,27.0,30.28,ENE,58,6.0,11.0,81,0.00,,,0.00,weatherlink.com 1.10,2013-02-08 11:59:00,
2013-02-08 07:14:00,32.2,27.0,30.27,East,99,9.0,16.0,81,0.00,,,0.00,weatherlink.com 1.10,2013-02-08 12:14:00,
2013-02-08 07:29:00,32.2,27.0,30.26,ESE,103,8.0,14.0,81,0.00,,,0.00,weatherlink.com 1.10,2013-02-08 12:29:00,
2013-02-08 07:44:00,32.1,27.0,30.26,ESE,110,10.0,15.0,82,0.00,,,0.00,weatherlink.com 1.10,2013-02-08 12:44:00,
2013-02-08 07:59:00,32.1,28.0,30.25,ESE,116,9.0,18.0,83,0.00,,,0.00,weatherlink.com 1.10,2013-02-08 12:59:00,
2013-02-08 08:14:00,32.1,28.0,30.25,East,96,8.0,18.0,83,0.00,,,0.00,weatherlink.com 1.10,2013-02-08 13:14:00,
2013-02-08 08:29:00,32.2,28.0,30.25,East,93,7.0,14.0,83,0.00,,,0.00,weatherlink.com 1.10,2013-02-08 13:29:00,
2013-02-08 08:44:00,32.3,28.0,30.23,East,91,9.0,14.0,84,0.00,,,0.00,weatherlink.com 1.10,2013-02-08 13:44:00,
2013-02-08 08:59:00,32.5,28.0,30.23,East,91,8.0,14.0,83,0.00,,,0.00,weatherlink.com 1.10,2013-02-08 13:59:00,
2013-02-08 09:14:00,32.8,28.0,30.22,East,97,6.0,15.0,83,0.00,,,0.00,weatherlink.com 1.10,2013-02-08 14:14:00,
2013-02-08 09:29:00,32.8,29.0,30.21,East,99,9.0,13.0,85,0.00,,,0.00,weatherlink.com 1.10,2013-02-08 14:29:00,
2013-02-08 09:44:00,32.8,29.0,30.21,East,94,7.0,13.0,86,0.00,,,0.00,weatherlink.com 1.10,2013-02-08 14:44:00,
2013-02-08 09:59:00,32.8,30.0,30.20,ESE,109,7.0,13.0,88,0.00,,,0.00,weatherlink.com 1.10,2013-02-08 14:59:00,
2013-02-08 10:14:00,32.8,30.0,30.19,East,98,12.0,12.0,89,0.00,,,0.00,weatherlink.com 1.10,2013-02-08 15:14:00,
2013-02-08 10:29:00,32.8,30.0,30.17,East,91,6.0,12.0,90,0.00,,,0.00,weatherlink.com 1.10,2013-02-08 15:29:00,
2013-02-08 10:44:00,32.8,31.0,30.16,ESE,113,6.0,12.0,91,0.00,,,0.00,weatherlink.com 1.10,2013-02-08 15:44:00,
2013-02-08 10:59:00,32.9,31.0,30.15,ENE,66,3.0,9.0,92,0.00,,,0.00,weatherlink.com 1.10,2013-02-08 15:59:00,
2013-02-08 11:15:00,33.0,31.0,30.13,East,87,3.0,9.0,93,0.00,,,0.00,weatherlink.com 1.10,2013-02-08 16:15:00,
2013-02-08 11:30:00,33.2,31.0,30.11,ENE,59,1.0,10.0,93,0.00,,,0.00,weatherlink.com 1.10,2013-02-08 16:30:00,
2013-02-08 11:45:00,33.4,32.0,30.09,ESE,119,9.0,11.0,93,0.00,,,0.00,weatherlink.com 1.10,2013-02-08 16:45:00,
2013-02-08 12:00:00,33.4,32.0,30.08,ENE,65,6.0,15.0,93,0.00,,,0.00,weatherlink.com 1.10,2013-02-08 17:00:00,
2013-02-08 12:15:00,33.5,32.0,30.06,ESE,111,7.0,12.0,93,0.00,,,0.00,weatherlink.com 1.10,2013-02-08 17:15:00,
2013-02-08 12:30:00,33.5,32.0,30.05,East,100,7.0,14.0,93,0.00,,,0.00,weatherlink.com 1.10,2013-02-08 17:30:00,
2013-02-08 12:45:00,33.5,32.0,30.04,East,89,6.0,11.0,94,0.00,,,0.00,weatherlink.com 1.10,2013-02-08 17:45:00,
2013-02-08 13:00:00,33.5,32.0,30.02,East,94,6.0,9.0,94,0.00,,,0.00,weatherlink.com 1.10,2013-02-08 18:00:00,
2013-02-08 13:15:00,33.5,32.0,30.01,East,93,3.0,10.0,94,0.00,,,0.00,weatherlink.com 1.10,2013-02-08 18:15:00,
2013-02-08 13:30:00,33.4,32.0,29.99,ENE,71,4.0,8.0,94,0.00,,,0.00,weatherlink.com 1.10,2013-02-08 18:30:00,
2013-02-08 13:45:00,33.4,32.0,29.98,East,82,3.0,9.0,94,0.00,,,0.00,weatherlink.com 1.10,2013-02-08 18:45:00,
2013-02-08 14:00:00,33.4,32.0,29.97,East,92,3.0,8.0,94,0.00,,,0.00,weatherlink.com 1.10,2013-02-08 19:00:00,
2013-02-08 14:15:00,33.4,32.0,29.95,East,99,6.0,11.0,94,0.00,,,0.00,weatherlink.com 1.10,2013-02-08 19:15:00,
2013-02-08 14:30:00,33.4,32.0,29.93,ENE,72,3.0,9.0,94,0.00,,,0.00,weatherlink.com 1.10,2013-02-08 19:30:00,
2013-02-08 14:45:00,33.4,32.0,29.93,ENE,70,4.0,12.0,94,0.00,,,0.00,weatherlink.com 1.10,2013-02-08 19:45:00,
2013-02-08 15:15:00,33.4,32.0,29.87,NE,44,5.0,12.0,94,0.01,,,0.01,weatherlink.com 1.10,2013-02-08 20:15:00,
2013-02-08 15:31:00,33.4,32.0,29.85,ENE,65,7.0,18.0,94,0.01,,,0.01,weatherlink.com 1.10,2013-02-08 20:31:00,
2013-02-08 15:45:00,33.4,32.0,29.83,East,96,10.0,14.0,94,0.01,,,0.01,weatherlink.com 1.10,2013-02-08 20:45:00,
2013-02-08 16:00:00,33.4,32.0,29.81,East,82,3.0,15.0,95,0.01,,,0.01,weatherlink.com 1.10,2013-02-08 21:00:00,
2013-02-08 16:16:00,33.3,32.0,29.80,East,97,7.0,10.0,95,0.00,,,0.01,weatherlink.com 1.10,2013-02-08 21:16:00,
2013-02-08 16:31:00,33.2,32.0,29.79,NNE,32,6.0,14.0,95,0.00,,,0.01,weatherlink.com 1.10,2013-02-08 21:31:00,
2013-02-08 16:46:00,33.1,32.0,29.78,ESE,108,6.0,12.0,95,0.00,,,0.01,weatherlink.com 1.10,2013-02-08 21:46:00,
2013-02-08 17:01:00,33.1,32.0,29.77,NE,44,10.0,11.0,95,0.01,,,0.02,weatherlink.com 1.10,2013-02-08 22:01:00,
2013-02-08 17:16:00,33.0,32.0,29.75,ENE,61,3.0,12.0,95,0.01,,,0.02,weatherlink.com 1.10,2013-02-08 22:16:00,
2013-02-08 17:31:00,32.9,32.0,29.74,ENE,75,3.0,10.0,95,0.02,,,0.03,weatherlink.com 1.10,2013-02-08 22:31:00,
2013-02-08 17:46:00,32.9,32.0,29.71,ESE,103,4.0,7.0,95,0.02,,,0.03,weatherlink.com 1.10,2013-02-08 22:46:00,
2013-02-08 18:01:00,32.9,32.0,29.70,North,4,4.0,9.0,95,0.01,,,0.03,weatherlink.com 1.10,2013-02-08 23:01:00,
2013-02-08 18:16:00,32.9,32.0,29.69,ESE,122,11.0,11.0,95,0.01,,,0.03,weatherlink.com 1.10,2013-02-08 23:16:00,
2013-02-08 18:31:00,32.8,32.0,29.64,NE,52,7.0,10.0,96,0.00,,,0.03,weatherlink.com 1.10,2013-02-08 23:31:00,
2013-02-08 18:46:00,32.8,32.0,29.62,ENE,75,0.0,0.0,96,0.00,,,0.03,weatherlink.com 1.10,2013-02-08 23:46:00,
2013-02-08 19:01:00,32.7,32.0,29.60,NE,52,0.0,0.0,96,0.00,,,0.03,weatherlink.com 1.10,2013-02-09 00:01:00,
2013-02-08 19:16:00,32.8,32.0,29.59,NE,51,0.0,0.0,96,0.01,,,0.04,weatherlink.com 1.10,2013-02-09 00:16:00,
2013-02-08 19:31:00,32.8,32.0,29.57,East,82,0.0,0.0,96,0.01,,,0.04,weatherlink.com 1.10,2013-02-09 00:31:00,
2013-02-08 19:46:00,32.7,32.0,29.55,ENE,69,0.0,0.0,96,0.01,,,0.04,weatherlink.com 1.10,2013-02-09 00:46:00,
2013-02-08 20:01:00,32.6,32.0,29.51,ENE,77,0.0,0.0,96,0.01,,,0.04,weatherlink.com 1.10,2013-02-09 01:01:00,
2013-02-08 20:31:00,32.6,32.0,29.47,ENE,58,0.0,0.0,96,0.00,,,0.04,weatherlink.com 1.10,2013-02-09 01:31:00,
2013-02-08 20:46:00,32.6,32.0,29.48,East,80,0.0,0.0,96,0.00,,,0.04,weatherlink.com 1.10,2013-02-09 01:46:00,
2013-02-08 21:01:00,32.6,32.0,29.49,East,80,0.0,0.0,96,0.00,,,0.04,weatherlink.com 1.10,2013-02-09 02:01:00,
2013-02-08 21:16:00,32.5,32.0,29.48,East,80,0.0,0.0,96,0.00,,,0.04,weatherlink.com 1.10,2013-02-09 02:16:00,
2013-02-08 21:31:00,32.4,31.0,29.46,East,80,0.0,0.0,96,0.00,,,0.04,weatherlink.com 1.10,2013-02-09 02:31:00,
2013-02-08 21:46:00,32.4,31.0,29.45,East,80,0.0,0.0,96,0.00,,,0.04,weatherlink.com 1.10,2013-02-09 02:46:00,